COSMOS 1275 DEB

Satellite information

Favourite Embed

Satellite Type and Status

DEBRISIN ORBIT

Key statistics

Satellite COSMOS 1275 DEB at a glance.

Uptime

16104

Days in orbit

Revolutions

≈ 14.3

Per day

Orbit

LEO

Low Earth Orbit

Inclination

82.9

Latest

Satellite identification and parameters

Extended collection of information and parameters for COSMOS 1275 DEB.

Object identification

Identified? True

Debris? True

Object name: COSMOS 1275 DEB

International designator: 1981-053AL

Object number (NORAD): 12692

Object ID (CCSDS): 12692

Country: COMMONWEALTH OF INDEPENDENT STATES (CIS)

Current information (Y/N): Y

RCS size: MEDIUM

Orbital parameters

Period: 100.538 minutes

Inclination: 82.898 deg

SMA: 7162.195 km

Apoapsis: 832.187 km

Periapsis: 735.934 km

RAAN: 317.2894 deg

Eccentricy: 0.0067195

Argument of periapsis: 349.1995 deg

Mean anomaly: 10.7745 deg

Mean motion: 14.32298401 rev/day

Mean motion (dot): 0.00000957 rev/day2

B* drag term: 0.00033999 1/REarth

Two-line elements (TLE)

Creation date: July 6, 2025, 10:36 p.m.

Reference frame: TEME

Reference center: EARTH

Epoch: July 6, 2025, 9:27 p.m. UTC

TLE line 0: 0 COSMOS 1275 DEB

TLE line 1: 1 12692U 81053AL 25187.89430534 .00000957 00000-0 33999-3 0 9993

TLE line 2: 2 12692 82.8980 317.2894 0067195 349.1995 10.7745 14.32298401268834

Live tracking on map

Real-time ground track for satellite COSMOS 1275 DEB.

In-orbit conjunctions

A list of the most updated potential collisions computed for object COSMOS 1275 DEB.

Target Orbit TCA Probability of collision Miss distance Type
SL-3 R/B LEO 2025-01-23 22:35:04 0.0001334895 667.0 (m) ROCKET BODY
FENGYUN 1C DEB SSO 2024-12-14 18:32:29 0.0001551079 227.0 (m) DEBRIS

Associated space launch

Navigation satellite providing location information for the Tsiklon-B navigation system

COSMOS 1275 DEB was lifted into orbit during the mission ‘Kosmos-3M | Parus 27’, on board a Kosmos-3M space rocket.

The launch took place on June 4, 1981, 3:41 p.m. from 132/2.

For more information about the launch, click the button.

Launch to space Kosmos-3M | Parus 27
Kosmos-3M | Parus 27

Agency: N/A

Status: Launch Successful

Launch date: June 4, 1981, 3:41 p.m. UTC

Rocket: Kosmos-3M

Launch pad: 132/2

Location: Plesetsk Cosmodrome, Russian Federation

...

Latest news about this satellite

There are no fresh news available about this satellite. Check back as we update our databases every day.


Newsletter sign-up

Weekly statistics, charts and insights to help you stay on top of the space industry.